When you browse on this site, cookies collect data to enhance your experience and personalize the content and advertising you see.
Visit our Privacy Policy to learn more. By continuing to use the site, you agree to this use of cookies and data.
  • In Latvia
  • List of Countries
  • For 7 days
  • Water Temperature
  • Weather Map
  • Weather Widgets
  • user-avatar
    Login

    Hourly Weather Berat

    Today, 22 August, Thursday

    Time Temperature Precipitation Wind Pressure Humidity
    00:00 +26°C° 0 mm 1 mps 746 mmHg 55%
    01:00 +26°C° 0 mm 2 mps 746 mmHg 55%
    02:00 +25°C° 0 mm 2 mps 746 mmHg 54%
    03:00 +25°C° 0 mm 2 mps 746 mmHg 53%
    04:00 +25°C° 0 mm 2 mps 746 mmHg 52%
    05:00 +26°C° 0 mm 1 mps 746 mmHg 47%
    06:00 +28°C° 0 mm 1 mps 747 mmHg 42%
    07:00 +30°C° 0 mm 1 mps 747 mmHg 36%
    08:00 +32°C° 0 mm 1 mps 747 mmHg 32%
    09:00 +34°C° 0 mm 1 mps 747 mmHg 27%
    10:00 +37°C° 0 mm 2 mps 747 mmHg 23%
    11:00 +38°C° 0 mm 2 mps 747 mmHg 22%
    12:00 +39°C° 0 mm 3 mps 746 mmHg 21%
    13:00 +40°C° 0 mm 4 mps 747 mmHg 22%
    14:00 +38°C° 0 mm 4 mps 746 mmHg 25%
    15:00 +37°C° 0 mm 4 mps 746 mmHg 28%
    16:00 +36°C° 0 mm 4 mps 746 mmHg 31%
    17:00 +33°C° 0 mm 3 mps 746 mmHg 38%
    18:00 +30°C° 0 mm 2 mps 746 mmHg 45%
    19:00 +28°C° 0 mm 1 mps 746 mmHg 51%
    20:00 +27°C° 0 mm 1 mps 746 mmHg 52%
    21:00 +27°C° 0 mm 1 mps 747 mmHg 54%
    22:00 +26°C° 0 mm 1 mps 747 mmHg 55%
    23:00 +26°C° 0 mm 1 mps 747 mmHg 53%

    Tomorrow, 23 August, Friday

    Time Temperature Precipitation Wind Pressure Humidity
    00:00 +26°C° 0 mm 1 mps 747 mmHg 51%
    01:00 +26°C° 0 mm 2 mps 747 mmHg 49%
    02:00 +26°C° 0 mm 2 mps 747 mmHg 49%
    03:00 +26°C° 0 mm 2 mps 747 mmHg 49%
    04:00 +25°C° 0 mm 2 mps 747 mmHg 48%
    05:00 +27°C° 0 mm 2 mps 747 mmHg 44%
    06:00 +29°C° 0 mm 2 mps 747 mmHg 39%
    07:00 +31°C° 0 mm 1 mps 747 mmHg 35%
    08:00 +33°C° 0 mm 1 mps 747 mmHg 31%
    09:00 +35°C° 0 mm 1 mps 747 mmHg 27%
    10:00 +39°C° 0 mm 1 mps 748 mmHg 23%
    11:00 +38°C° 0 mm 2 mps 747 mmHg 23%
    12:00 +38°C° 0 mm 2 mps 747 mmHg 24%
    13:00 +38°C° 0 mm 3 mps 746 mmHg 24%
    14:00 +37°C° 0 mm 3 mps 746 mmHg 27%
    15:00 +36°C° 0 mm 3 mps 745 mmHg 29%
    16:00 +35°C° 0 mm 3 mps 745 mmHg 32%
    17:00 +32°C° 0 mm 2 mps 745 mmHg 36%
    18:00 +31°C° 0 mm 1 mps 745 mmHg 39%
    19:00 +29°C° 0 mm 1 mps 745 mmHg 42%
    20:00 +29°C° 0 mm 1 mps 745 mmHg 42%
    21:00 +29°C° 0 mm 1 mps 746 mmHg 42%
    22:00 +29°C° 0 mm 1 mps 746 mmHg 42%
    23:00 +28°C° 0 mm 1 mps 746 mmHg 45%

    Day after tomorrow, 24 August, Saturday

    Time Temperature Precipitation Wind Pressure Humidity
    00:00 +28°C° 0 mm 1 mps 746 mmHg 47%
    01:00 +27°C° 0 mm 1 mps 746 mmHg 49%
    02:00 +27°C° 0 mm 1 mps 746 mmHg 50%
    03:00 +26°C° 0 mm 1 mps 745 mmHg 51%
    04:00 +26°C° 0 mm 2 mps 745 mmHg 52%
    05:00 +27°C° 0 mm 2 mps 746 mmHg 47%
    06:00 +29°C° 0 mm 2 mps 746 mmHg 41%
    07:00 +31°C° 0 mm 2 mps 746 mmHg 35%
    08:00 +34°C° 0 mm 2 mps 746 mmHg 31%
    09:00 +36°C° 0 mm 2 mps 746 mmHg 28%
    10:00 +38°C° 0 mm 2 mps 746 mmHg 24%
    11:00 +37°C° 0 mm 2 mps 746 mmHg 26%
    12:00 +36°C° 0 mm 3 mps 745 mmHg 29%
    13:00 +36°C° 0 mm 3 mps 745 mmHg 31%
    14:00 +35°C° 0.1 mm 3 mps 745 mmHg 32%
    15:00 +35°C° 0.1 mm 3 mps 745 mmHg 32%
    16:00 +35°C° 0.1 mm 2 mps 744 mmHg 33%
    17:00 +34°C° 0.1 mm 2 mps 744 mmHg 38%
    18:00 +31°C° 0.1 mm 2 mps 745 mmHg 43%
    19:00 +29°C° 0.1 mm 1 mps 745 mmHg 48%
    20:00 +28°C° 0.1 mm 1 mps 745 mmHg 49%
    21:00 +28°C° 0.1 mm 1 mps 745 mmHg 51%
    22:00 +27°C° 0.1 mm 2 mps 745 mmHg 53%
    23:00 +26°C° 0 mm 2 mps 745 mmHg 54%

    25 August, Sunday

    Time Temperature Precipitation Wind Pressure Humidity
    00:00 +26°C° 0 mm 2 mps 745 mmHg 55%
    01:00 +25°C° 0 mm 2 mps 745 mmHg 55%
    02:00 +25°C° 0 mm 2 mps 744 mmHg 55%
    03:00 +25°C° 0 mm 2 mps 744 mmHg 55%
    04:00 +24°C° 0 mm 2 mps 744 mmHg 55%
    05:00 +26°C° 0 mm 2 mps 744 mmHg 51%
    06:00 +28°C° 0 mm 2 mps 745 mmHg 46%
    07:00 +30°C° 0 mm 2 mps 745 mmHg 42%
    08:00 +32°C° 0 mm 2 mps 745 mmHg 37%
    09:00 +35°C° 0 mm 1 mps 745 mmHg 31%
    10:00 +37°C° 0 mm 1 mps 745 mmHg 25%
    11:00 +38°C° 0 mm 2 mps 745 mmHg 26%
    12:00 +38°C° 0 mm 3 mps 744 mmHg 26%
    13:00 +37°C° 0 mm 4 mps 744 mmHg 27%
    14:00 +36°C° 0.2 mm 4 mps 744 mmHg 32%
    15:00 +35°C° 0.2 mm 3 mps 744 mmHg 37%
    16:00 +33°C° 0.2 mm 3 mps 743 mmHg 43%
    17:00 +30°C° 0.2 mm 2 mps 744 mmHg 49%
    18:00 +28°C° 0.2 mm 2 mps 744 mmHg 54%
    19:00 +27°C° 0.2 mm 2 mps 744 mmHg 60%
    20:00 +26°C° 0.1 mm 2 mps 744 mmHg 62%
    21:00 +26°C° 0.1 mm 2 mps 745 mmHg 63%
    22:00 +26°C° 0.1 mm 2 mps 745 mmHg 64%
    23:00 +26°C° 0 mm 2 mps 745 mmHg 65%

    26 August, Monday

    Time Temperature Precipitation Wind Pressure Humidity
    00:00 +25°C° 0 mm 2 mps 744 mmHg 65%
    01:00 +25°C° 0 mm 2 mps 744 mmHg 66%
    02:00 +25°C° 0 mm 2 mps 744 mmHg 63%
    03:00 +25°C° 0 mm 2 mps 744 mmHg 61%
    04:00 +25°C° 0 mm 2 mps 744 mmHg 59%
    05:00 +26°C° 0 mm 2 mps 744 mmHg 55%
    06:00 +27°C° 0 mm 2 mps 744 mmHg 50%
    07:00 +28°C° 0 mm 2 mps 744 mmHg 46%
    08:00 +30°C° 0 mm 2 mps 745 mmHg 39%
    09:00 +33°C° 0 mm 1 mps 745 mmHg 33%
    10:00 +35°C° 0 mm 1 mps 745 mmHg 27%
    11:00 +36°C° 0 mm 2 mps 745 mmHg 27%
    12:00 +36°C° 0 mm 3 mps 744 mmHg 26%
    13:00 +37°C° 0 mm 3 mps 744 mmHg 26%
    14:00 +36°C° 0 mm 3 mps 744 mmHg 29%
    15:00 +35°C° 0 mm 3 mps 744 mmHg 32%
    16:00 +34°C° 0 mm 3 mps 744 mmHg 35%
    17:00 +31°C° 0 mm 2 mps 744 mmHg 40%
    18:00 +29°C° 0 mm 2 mps 744 mmHg 46%
    19:00 +27°C° 0 mm 1 mps 744 mmHg 51%
    20:00 +27°C° 0 mm 1 mps 744 mmHg 52%
    21:00 +27°C° 0 mm 2 mps 745 mmHg 53%
    22:00 +26°C° 0 mm 2 mps 745 mmHg 54%
    23:00 +26°C° 0 mm 2 mps 745 mmHg 56%

    27 August, Tuesday

    Time Temperature Precipitation Wind Pressure Humidity
    00:00 +25°C° 0 mm 2 mps 745 mmHg 57%
    01:00 +25°C° 0 mm 2 mps 744 mmHg 58%
    02:00 +25°C° 0 mm 2 mps 744 mmHg 58%
    03:00 +25°C° 0 mm 2 mps 744 mmHg 58%
    04:00 +24°C° 0 mm 2 mps 744 mmHg 58%
    05:00 +26°C° 0 mm 2 mps 744 mmHg 52%
    06:00 +28°C° 0 mm 1 mps 744 mmHg 47%
    07:00 +30°C° 0 mm 1 mps 745 mmHg 41%
    08:00 +32°C° 0 mm 1 mps 745 mmHg 36%
    09:00 +34°C° 0 mm 1 mps 745 mmHg 31%
    10:00 +37°C° 0 mm 2 mps 745 mmHg 26%
    11:00 +35°C° 0.2 mm 2 mps 745 mmHg 32%
    12:00 +33°C° 0.2 mm 3 mps 744 mmHg 38%
    13:00 +32°C° 0.2 mm 4 mps 744 mmHg 45%
    14:00 +30°C° 0.6 mm 3 mps 744 mmHg 48%
    15:00 +29°C° 0.6 mm 3 mps 744 mmHg 51%
    16:00 +28°C° 0.6 mm 3 mps 744 mmHg 54%
    17:00 +27°C° 0 mm 3 mps 744 mmHg 55%
    18:00 +26°C° 0 mm 3 mps 744 mmHg 57%
    19:00 +25°C° 0 mm 2 mps 745 mmHg 58%
    20:00 +25°C° 0 mm 2 mps 745 mmHg 59%
    21:00 +25°C° 0 mm 2 mps 745 mmHg 60%
    22:00 +24°C° 0 mm 2 mps 745 mmHg 61%
    23:00 +24°C° 0 mm 2 mps 745 mmHg 61%
    Show more